Weather History for CXIB - September, 2013

Change the Weather History Date:

Wednesday, September 4, 2013

  Actual Average Record
Temperature  
Mean Temperature 68 °F -  
Max Temperature 74 °F - - ()
Min Temperature 61 °F - - ()
Cooling Degree Days 4    
Growing Degree Days 18 (Base 50)    
Moisture  
Dew Point 65 °F    
Average Humidity 87    
Maximum Humidity 93    
Minimum Humidity 71    
Precipitation  
Precipitation 0.04 in - - ()
Sea Level Pressure  
Sea Level Pressure 29.74 in    
Wind  
Wind Speed 2 mph ()    
Max Wind Speed 6 mph    
Max Gust Speed -    
T = Trace of Precipitation, MM = Missing Value Source: Averaged Metar Reports

Daily Weather History Graph

Daily Weather History Graph

Search for Another Location

Airport or City:

Trip Planner

Search our weather history database for the weather conditions in past years. The results will help you decide how hot, cold, wet, or windy it might be!

Date:

Astronomy

Sep. 04, 2013 Rise Set
Actual Time 6:25 AM ADT 7:34 PM ADT
Civil Twilight 5:54 AM ADT 8:05 PM ADT
Nautical Twilight 5:16 AM ADT 8:42 PM ADT
Astronomical Twilight 4:37 AM ADT 9:22 PM ADT
Moon 5:32 AM ADT (9/4) 6:49 PM ADT (9/4)
Length of Visible Light 14h 11m
Length of Day
13h 09m
Waning Crescent, 1% of the Moon is Illuminated
Sep 4
Waning Crescent
Sep 5
New
Sep 12
First Quarter
Sep 19
Full
Sep 27
Last Quarter

Hourly Weather History & Observations

Time (ADT) Temp. Dew Point Humidity Pressure Visibility Wind Dir Wind Speed Gust Speed Precip Events Conditions
12:00 AM 68.2 °F 65.5 °F 91% 29.81 in - South 2.3 mph - 0.15 in   Unknown
1:00 AM 67.6 °F 65.3 °F 92% 29.79 in - West 1.2 mph - 0.13 in   Unknown
2:00 AM 66.4 °F 64.4 °F 93% 29.77 in - North 1.2 mph - 0.07 in   Unknown
3:00 AM 68 °F 66 °F 92% 29.76 in - SSW 3.5 mph - -  
3:00 AM 68.2 °F 66.2 °F 93% 29.76 in - SSW 3.5 mph - N/A   Unknown
4:00 AM 68.2 °F 65.8 °F 92% 29.75 in - WSW 2.3 mph - N/A   Unknown
5:00 AM 67.1 °F 64.6 °F 92% 29.75 in - NNW 2.3 mph - N/A   Unknown
6:00 AM 65.1 °F 63.0 °F 93% 29.75 in - NNW 1.2 mph - N/A   Unknown
7:00 AM 64.8 °F 62.8 °F 93% 29.76 in - NW 1.2 mph - N/A   Unknown
8:00 AM 67.5 °F 65.5 °F 93% 29.76 in - NNW 1.2 mph - N/A   Unknown
9:00 AM 70 °F 67 °F 88% 29.77 in - South 1.2 mph - -  
9:00 AM 69.6 °F 67.1 °F 92% 29.77 in - South 1.2 mph - N/A   Unknown
10:00 AM 71.2 °F 66.0 °F 84% 29.77 in - South 2.3 mph - N/A   Unknown
11:00 AM 70.7 °F 65.8 °F 85% 29.76 in - NNE 1.2 mph - N/A   Unknown
12:00 PM 73.4 °F 66.7 °F 80% 29.74 in - WSW 4.6 mph - N/A   Unknown
1:00 PM 72.9 °F 65.5 °F 78% 29.72 in - SW 5.8 mph - N/A   Unknown
2:00 PM 74.3 °F 66.7 °F 77% 29.71 in - SSW 4.6 mph - N/A   Unknown
3:00 PM 74 °F 67 °F 71% 29.70 in - SSW 4.6 mph - -  
3:00 PM 74.3 °F 66.6 °F 77% 29.70 in - SSW 4.6 mph - N/A   Unknown
4:00 PM 74.3 °F 67.3 °F 79% 29.68 in - SSE 2.3 mph - N/A   Unknown
5:00 PM 71.8 °F 66.0 °F 82% 29.68 in - South 3.5 mph - N/A   Unknown
6:00 PM 73.9 °F 66.6 °F 78% 29.66 in - South 3.5 mph - N/A   Unknown
7:00 PM 71.1 °F 66.0 °F 84% 29.67 in - South 2.3 mph - N/A   Unknown
8:00 PM 68.7 °F 65.1 °F 88% 29.69 in - Calm Calm - 0.05 in   Unknown
9:00 PM 65 °F 63 °F 90% 29.72 in - WSW 2.3 mph - -  
9:00 PM 65.3 °F 62.8 °F 92% 29.72 in - WSW 2.3 mph - N/A   Unknown
10:00 PM 63.3 °F 61.2 °F 93% 29.74 in - WSW 2.3 mph - N/A   Unknown
11:00 PM 61.9 °F 59.9 °F 93% 29.75 in - WSW 2.3 mph - N/A   Unknown